Flag for Dominican Republic Weather past 2 weeks in Punta Cana, Dominican Republic

Now
84 °F

Scattered clouds.


Feels Like: 92 °F
Forecast: 80 / 89 °F
Wind: 12 mph from Southeast

Location: Punta Cana

Current Time: Aug 4, 2015 at 10:08:49 AM

Latest Report: Aug 4, 2015 at 9:00 AM


Visibility: N/A

Pressure: 30.07 "Hg

Humidity: 74%

Dew point: 75 °F

Location of Punta CanaLocation

Historic Weather in Punta Cana — Graph

°F

Punta Cana temperature yesterday

Maximum temperature yesterday: 90 °F (at 1:00 PM)
Minimum temperature yesterday: 75 °F (at 6:00 AM)
Average temperature yesterday: 83 °F

Past Weeks' High & Low Weather Summary

 TemperatureHumidityPressure
High90 °F (Jul 25, 1:00 PM)100% (Jul 21, 5:00 AM)30.12 "Hg (Jul 21, 5:00 AM)
Low75 °F (Jul 21, 4:00 AM)59% (Jul 27, 1:00 PM)29.92 "Hg (Aug 2, 5:00 PM)
Average83 °F78%30.03 "Hg
* Reported Jul 20 9:00 AM — Aug 4 9:00 AM, Punta Cana, Weather by CustomWeather, © 2015

Note: Actual official high and low records may vary slightly from our data, if they occured in-between our weather recording intervals... More about our weather records

Advertising

Punta Cana weather history for previous 24 hours

 ConditionsComfort  
Time TempWeatherWind HumidityBarometerVisibility
9:00 AM
Tue, Aug 4
84 °FScattered clouds.12 mph74%30.07 "HgN/A
8:00 AM84 °FPassing clouds.9 mph74%30.07 "HgN/A
7:00 AM81 °FScattered clouds.8 mph84%30.07 "HgN/A
6:00 AM82 °FPassing clouds.7 mph79%30.04 "HgN/A
5:00 AM82 °FPassing clouds.8 mph79%30.04 "HgN/A
4:00 AM82 °FPassing clouds.12 mph84%30.01 "HgN/A
3:00 AM82 °FPassing clouds.15 mph84%30.01 "HgN/A
2:00 AM82 °FPassing clouds.16 mph84%30.01 "HgN/A
1:00 AM82 °FPassing clouds.15 mph84%30.04 "HgN/A
12:00 AM82 °FPassing clouds.N/A84%30.04 "HgN/A
11:00 PM
Mon, Aug 3
82 °FPassing clouds.12 mph84%30.04 "HgN/A
10:00 PM82 °FPassing clouds.8 mph84%30.04 "HgN/A
9:00 PM82 °FPassing clouds.8 mph84%30.01 "HgN/A
8:00 PM82 °FPassing clouds.7 mph84%30.01 "HgN/A
7:00 PM84 °FScattered clouds.9 mph79%29.98 "HgN/A
6:00 PM86 °FScattered clouds.9 mph75%29.98 "HgN/A
5:00 PM86 °FScattered clouds.9 mph75%29.98 "HgN/A
4:00 PM88 °FScattered clouds.5 mph70%29.98 "HgN/A
3:00 PM88 °FScattered clouds.10 mph70%29.98 "HgN/A
2:00 PM88 °FScattered clouds.8 mph70%30.01 "HgN/A
1:00 PM90 °FScattered clouds.9 mph67%30.01 "HgN/A
12:00 PM88 °FScattered clouds.8 mph70%30.01 "HgN/A
11:00 AM86 °FBroken clouds.6 mph75%30.01 "HgN/A
10:00 AM82 °FRain. Broken clouds.6 mph94%30.01 "Hg5 mi
Weather by CustomWeather, © 2015

See weather overviewHow to use our weather pages